Simultaneous Nadir Overpasses (SNOs) Predictions

Prediction of SNOs between METOP-B and NOAA-19 Satellite Orbit:

Table of predicted SNOs for the next 14.0 days since TLE Epoch: 4/21/2018
Index Date (METOP-B) Time (METOP-B) Lat,Lon (METOP-B) SZA (METOP-B ) Date (NOAA-19) Time (NOAA-19) Lat,Lon (NOAA-19) SZA (NOAA-19 ) Distance(km) Time Diff (sec)
1 04/24/2018 04:58:51 -78.22, -65.62 114.52 04/24/2018 04:57:35 -78.21, -65.47 114.53 3.41 76
2 04/24/2018 05:49:31 78.22, 101.72 65.47 04/24/2018 05:48:40 78.24, 101.61 65.48 3.28 51
3 04/24/2018 06:40:13 -78.20, -91.05 114.56 04/24/2018 06:39:36 -78.21, -90.92 114.56 2.98 37
4 04/24/2018 07:30:53 78.20, 76.28 65.43 04/24/2018 07:30:40 78.19, 76.38 65.42 2.39 13
5 04/24/2018 08:21:35 -78.18,-116.49 114.61 04/24/2018 08:21:37 -78.20,-116.38 114.59 2.94 2
6 04/24/2018 09:12:15 78.18, 50.84 65.38 04/24/2018 09:12:41 78.19, 50.92 65.39 1.82 26
7 04/24/2018 10:02:57 -78.17,-141.93 114.65 04/24/2018 10:03:38 -78.19,-141.83 114.62 3.31 41
8 04/24/2018 10:53:37 78.17, 25.40 65.34 04/24/2018 10:54:42 78.18, 25.46 65.37 1.99 65
9 04/24/2018 11:44:25 -77.91,-168.62 114.98 04/24/2018 11:45:33 -77.96,-165.97 114.82 61.86 68
10 05/05/2018 01:58:43 78.28, 159.68 62.21 05/05/2018 01:57:39 78.26, 159.62 62.18 2.50 64
11 05/05/2018 02:49:26 -78.23, -33.22 117.86 05/05/2018 02:48:39 -78.26, -33.17 117.83 3.41 47
12 05/05/2018 03:40:05 78.26, 134.24 62.17 05/05/2018 03:39:40 78.25, 134.17 62.15 1.94 25




NCC Satellite Simultaneous Nadir Overpasses (SNOs) Prediction Service
